Regional Weather Roundup
Issued by NWS Midland/Odessa, TX

Skip options and go directly to product.
Home | Oldest Version | Next Version | Current Version | All | Text Only | Save Text | Print | Product List | Glossary On

Skip product version selection by date and time.   
229
ASUS44 KMAF 290801
RWRMAF
MIDLAND AREA WEATHER ROUNDUP
NATIONAL WEATHER SERVICE MIDLAND TX
300 AM CDT FRI MAY 29 2015

...IN SOUTHWEST TEXAS AND SOUTHEAST NEW MEXICO...

CITY           SKY/WX    TMP DP  RH WIND       PRES   REMARKS
ALPINE         PTCLDY    60  53  78 S10       30.09S
ANDREWS        FAIR      60  56  87 S7        29.94F
ARTESIA        CLEAR     57  54  88 W8        30.00R
BIG SPRING     CLOUDY    64  58  83 E9        29.96R
CARLSBAD       CLEAR     58  54  86 S8        29.96F
DRYDEN           N/A     64  60  87 W12       29.94F
FORT STOCKTON  MOCLDY    61  56  83 E12       29.98R
GUAD PASS      CLEAR     68  29  23 W13       30.07F
HOBBS          CLOUDY    55  55 100 S8        29.98S
MARFA          PTCLDY    54  46  76 CALM      30.08S
MIDLAND AIRPK  CLOUDY    63  58  82 SW7       29.94F
MIDLAND INTL   CLOUDY    61  57  87 SW10      29.94F
ODESSA         CLOUDY    61  56  83 SW5       29.96
PECOS          PTCLDY    60  56  86 SE7       29.94F
PRESIDIO       FAIR      79  58  49 NE14      29.91S
SEMINOLE       CLOUDY    59  55  85 SW9       29.95F
SNYDER         CLOUDY    60  58  92 SE9       29.92S
WINK           MOCLDY    61  56  83 E6        29.93F
$$
...OTHER STATIONS IN TEXAS...

CITY           SKY/WX    TMP DP  RH WIND       PRES   REMARKS
ABILENE        CLOUDY    64  62  93 N15       29.95R
AMARILLO       MOCLDY    56  53  90 SE14      29.97F
AUSTIN         LGT RAIN  65  64  97 NW3       30.01F
BROWNSVILLE    CLOUDY    79  76  90 SE10      29.90F
CORPUS CHRISTI CLOUDY    78  75  90 S8        29.93F
DALLAS FTW     TSTM      65  65 100 N10       29.92F FOG
DEL RIO        CLOUDY    65  62  90 S6        29.91F
EL PASO        CLEAR     73  20  13 S6        29.97R HAZE
HOUSTON INT    MOCLDY    77  74  90 S5        29.96F
LUBBOCK        MOCLDY    58  56  93 E8        29.98R
SAN ANGELO     CLOUDY    63  60  90 SW14      29.93R
SAN ANTONIO    LGT RAIN  67  63  87 NW8       30.04R
WACO           LGT RAIN  66  64  94 NW13      29.94R
WICHITA FALLS  NOT AVBL
$$
...OTHER LOCATIONS IN NEW MEXICO...

CITY           SKY/WX    TMP DP  RH WIND       PRES   REMARKS
ALAMAGORDO     CLEAR     63  18  17 N3        29.98R
ALBUQUERQUE    CLEAR     67  32  27 NW8       30.09S
CANNON AFB     NOT AVBL
CLOVIS         CLOUDY    55  48  76 NW3       30.02S
HOLLOMAN AFB   CLEAR     61  23  23 N7        29.96R
ROSWELL        PTCLDY    60  53  77 W10       29.98S
RUIDOSO        CLEAR     57  36  44 W6        30.17S
SANTA FE       CLEAR     57  33  40 N18G28    30.13S
TRUTH OR CONSE CLEAR     70  16  12 NW10      30.03F
TUCUMCARI      MOCLDY    58  51  78 W3        30.02S
$$

USA.gov is the U.S. government's official web portal to all federal, state and local government web resources and services.